Flag for Lebanon Weather past 2 weeks in Sidon, Lebanon

Now
82 °F

Sunny.


Feels Like: 85 °F
Forecast: 74 / 87 °F
Wind: 9 mph from West

Location: Beirut Airport

Current Time: Jul 4, 2015 at 1:45:20 PM

Latest Report: Jul 4, 2015 at 1:00 PM


Visibility: N/A

Pressure: 29.95 "Hg

Humidity: 58%

Dew point: 66 °F

Location of SidonLocation

Historic Weather in Sidon — Graph

°F

Sidon temperature yesterday

Maximum temperature yesterday: 82 °F (at 12:00 PM)
Minimum temperature yesterday: 75 °F (at 5:00 AM)
Average temperature yesterday: 79 °F

Past Weeks' High & Low Weather Summary

 TemperatureHumidityPressure
High82 °F (Jun 19, 2:00 PM)83% (Jun 20, 3:00 AM)30.01 "Hg (Jun 20, 3:00 AM)
Low72 °F (Jun 22, 6:00 AM)51% (Jun 25, 10:00 AM)29.62 "Hg (Jun 28, 3:00 AM)
Average78 °F66%29.87 "Hg
* Reported Jun 19 1:00 PM — Jul 4 1:00 PM, Sidon, Weather by CustomWeather, © 2015

Note: Actual official high and low records may vary slightly from our data, if they occured in-between our weather recording intervals... More about our weather records

Advertising

Sidon weather history for previous 24 hours

 ConditionsComfort  
Time TempWeatherWind HumidityBarometerVisibility
1:00 PM
Sat, Jul 4
82 °FSunny.9 mph58%29.95 "HgN/A
12:00 PM81 °FPassing clouds.9 mph62%29.95 "HgN/A
11:00 AM81 °FPassing clouds.10 mph62%29.95 "HgN/A
10:00 AM79 °FPassing clouds.9 mph61%29.95 "Hg5 mi
9:00 AM79 °FSunny.12 mph61%29.92 "Hg5 mi
8:00 AM77 °FSunny.2 mph61%29.92 "Hg5 mi
7:00 AM75 °FScattered clouds.5 mph65%29.92 "Hg5 mi
6:00 AM73 °FPassing clouds.5 mph69%29.92 "Hg5 mi
5:00 AM75 °FPassing clouds.5 mph69%29.92 "Hg5 mi
4:00 AM75 °FPassing clouds.3 mph74%29.92 "Hg5 mi
3:00 AM75 °FPassing clouds.5 mph74%29.92 "Hg5 mi
2:00 AM75 °FPassing clouds.5 mph74%29.92 "Hg5 mi
1:00 AM75 °FPassing clouds.3 mph78%29.92 "Hg5 mi
12:00 AM77 °FPassing clouds.6 mph74%29.92 "Hg5 mi
11:00 PM
Fri, Jul 3
77 °FPassing clouds.6 mph74%29.92 "Hg5 mi
10:00 PM77 °FPassing clouds.6 mph74%29.92 "Hg5 mi
9:00 PM79 °FPassing clouds.7 mph70%29.92 "Hg5 mi
8:00 PM79 °FPartly sunny.8 mph70%29.92 "Hg5 mi
7:00 PM82 °FPartly sunny.9 mph62%29.92 "Hg5 mi
6:00 PM81 °FScattered clouds.10 mph66%29.92 "Hg5 mi
5:00 PM82 °FScattered clouds.10 mph62%29.92 "Hg5 mi
4:00 PM81 °FScattered clouds.10 mph66%29.92 "Hg5 mi
3:00 PM82 °FScattered clouds.10 mph62%29.92 "Hg5 mi
2:00 PM81 °FScattered clouds.10 mph70%29.92 "Hg5 mi
1:00 PM82 °FScattered clouds.12 mph62%29.92 "Hg5 mi
Weather by CustomWeather, © 2015

See weather overviewHow to use our weather pages